CXBN-2 (42704 NORAD) Tracking and Keplerian Element Data

This shows tracking and keplerian element data for the satellite.

Feedback or suggestion? Click here.




ElementValue
Catalog42704
NameCXBN-2
Epoch Orbit6667
Epoch Day198.37389655
Epoch Year2018
RAAN201.338
Inclination51.6345
Eccentricity0.0002171
Argument of Perigee351.0163
Mean Anonmoly9.0796
Mean Motion15.72295443
Decay Rate0.00030261
L11 42704U 98067LM 18198.37389655 .00030261 00000-0 22743-3 0 9993
L22 42704 51.6345 201.3380 0002171 351.0163 9.0796 15.72295443 66678

Live tracking and technical data element details for CXBN-2 (NORAD 42704). CXBN-2 can be tracked NOW for your location showing map with azimuth and elevation plus other details from your city location.

Track the satellite on the map from your city or location and see movement details for azimuth, elevation, latitude, longitude, range, height, and movement on the map or in text.







IsCatalogInMostPopularTable: catalog: 42704, numindb: 87
Update: records affected: 1



GetName: 42704 CXBN-2

Hit Count: updated at: Thu, 19 Jul 2018 03:49:21 GMT